Time,TemperatureF,DewpointF,PressureIn,WindDirection,WindDirectionDegrees,WindSpeedMPH,WindSpeedGustMPH,Humidity,HourlyPrecipIn,Conditions,Clouds,dailyrainin,SoftwareType,DateUTC
2013-04-05 00:03:00,39.0,30.0,29.91,NW,309,0.0,0.0,69,0.00,,,0.00,,2013-04-05 04:03:00,
2013-04-05 00:12:00,39.0,30.0,29.91,NW,309,0.0,0.0,69,0.00,,,0.00,,2013-04-05 04:12:00,
2013-04-05 00:23:00,39.0,31.0,29.91,NW,309,0.0,0.0,72,0.00,,,0.00,,2013-04-05 04:23:00,
2013-04-05 00:33:00,38.0,30.0,29.90,NW,309,0.0,0.0,72,0.00,,,0.00,,2013-04-05 04:33:00,
2013-04-05 00:42:00,38.0,30.0,29.90,NW,309,0.0,0.0,72,0.00,,,0.00,,2013-04-05 04:42:00,
2013-04-05 00:52:00,37.0,29.0,29.91,NW,309,0.0,0.0,73,0.00,,,0.00,,2013-04-05 04:52:00,
2013-04-05 01:02:00,37.0,29.0,29.91,NW,309,0.0,0.0,73,0.00,,,0.00,,2013-04-05 05:02:00,
2013-04-05 01:13:00,37.0,29.0,29.91,NW,309,0.0,0.0,73,0.00,,,0.00,,2013-04-05 05:13:00,
2013-04-05 01:22:00,35.0,29.0,29.91,NW,309,0.0,0.0,78,0.00,,,0.00,,2013-04-05 05:22:00,
2013-04-05 01:32:00,35.0,29.0,29.91,NW,309,0.0,0.0,79,0.00,,,0.00,,2013-04-05 05:32:00,
2013-04-05 01:42:00,35.0,29.0,29.91,NW,309,0.0,0.0,79,0.00,,,0.00,,2013-04-05 05:42:00,
2013-04-05 01:53:00,36.0,31.0,29.92,NNW,348,2.0,4.0,83,0.00,,,0.00,,2013-04-05 05:53:00,
2013-04-05 02:02:00,38.0,33.0,29.93,North,11,0.0,3.0,81,0.00,,,0.00,,2013-04-05 06:02:00,
2013-04-05 02:12:00,38.0,33.0,29.93,North,11,0.0,3.0,81,0.00,,,0.00,,2013-04-05 06:12:00,
2013-04-05 02:22:00,38.0,32.0,29.93,North,0,3.0,4.0,80,0.00,,,0.00,,2013-04-05 06:22:00,
2013-04-05 02:32:00,38.0,32.0,29.93,NNE,19,0.0,4.0,80,0.00,,,0.00,,2013-04-05 06:32:00,
2013-04-05 02:42:00,38.0,32.0,29.93,NNE,19,0.0,4.0,80,0.00,,,0.00,,2013-04-05 06:42:00,
2013-04-05 02:52:00,38.0,32.0,29.93,NW,304,0.0,2.0,78,0.00,,,0.00,,2013-04-05 06:52:00,
2013-04-05 03:03:00,37.0,31.0,29.93,North,5,0.0,2.0,78,0.00,,,0.00,,2013-04-05 07:03:00,
2013-04-05 03:12:00,37.0,31.0,29.93,North,5,0.0,2.0,78,0.00,,,0.00,,2013-04-05 07:12:00,
2013-04-05 03:22:00,37.0,31.0,29.94,NNE,17,0.0,2.0,78,0.00,,,0.00,,2013-04-05 07:22:00,
2013-04-05 03:32:00,36.0,30.0,29.94,North,10,1.0,4.0,79,0.00,,,0.00,,2013-04-05 07:32:00,
2013-04-05 03:42:00,36.0,30.0,29.94,North,10,1.0,4.0,79,0.00,,,0.00,,2013-04-05 07:42:00,
2013-04-05 03:53:00,36.0,30.0,29.95,NE,34,1.0,3.0,79,0.00,,,0.00,,2013-04-05 07:53:00,
2013-04-05 04:02:00,36.0,30.0,29.95,North,355,0.0,2.0,79,0.00,,,0.00,,2013-04-05 08:02:00,
2013-04-05 04:13:00,36.0,30.0,29.95,North,355,0.0,2.0,79,0.00,,,0.00,,2013-04-05 08:13:00,
2013-04-05 04:22:00,35.0,29.0,29.95,NNE,19,0.0,2.0,79,0.00,,,0.00,,2013-04-05 08:22:00,
2013-04-05 04:32:00,35.0,29.0,29.96,NNW,336,0.0,3.0,77,0.00,,,0.00,,2013-04-05 08:32:00,
2013-04-05 04:43:00,35.0,29.0,29.96,NNW,336,0.0,3.0,77,0.00,,,0.00,,2013-04-05 08:43:00,
2013-04-05 04:52:00,34.0,28.0,29.96,NNE,24,0.0,2.0,77,0.00,,,0.00,,2013-04-05 08:52:00,
2013-04-05 05:02:00,33.0,27.0,29.98,NNE,24,0.0,0.0,78,0.00,,,0.00,,2013-04-05 09:02:00,
2013-04-05 05:12:00,33.0,27.0,29.98,NNE,24,0.0,0.0,78,0.00,,,0.00,,2013-04-05 09:12:00,
2013-04-05 05:22:00,33.0,27.0,29.98,NNE,24,0.0,0.0,79,0.00,,,0.00,,2013-04-05 09:22:00,
2013-04-05 05:33:00,31.0,26.0,29.98,NNE,24,0.0,0.0,82,0.00,,,0.00,,2013-04-05 09:33:00,
2013-04-05 05:43:00,31.0,26.0,29.98,NNE,24,0.0,0.0,82,0.00,,,0.00,,2013-04-05 09:43:00,
2013-04-05 05:52:00,31.0,27.0,29.99,NNE,24,0.0,0.0,84,0.00,,,0.00,,2013-04-05 09:52:00,
2013-04-05 06:03:00,31.0,27.0,29.99,NNE,24,0.0,0.0,85,0.00,,,0.00,,2013-04-05 10:03:00,
2013-04-05 06:13:00,31.0,27.0,29.99,NNE,24,0.0,0.0,85,0.00,,,0.00,,2013-04-05 10:13:00,
2013-04-05 06:23:00,30.0,26.0,30.00,NNE,24,0.0,0.0,85,0.00,,,0.00,,2013-04-05 10:23:00,
2013-04-05 06:33:00,30.0,26.0,30.00,NNE,24,0.0,0.0,85,0.00,,,0.00,,2013-04-05 10:33:00,
2013-04-05 06:43:00,30.0,26.0,30.00,NNE,24,0.0,0.0,85,0.00,,,0.00,,2013-04-05 10:43:00,
2013-04-05 06:53:00,29.0,25.0,30.01,NNE,24,0.0,0.0,85,0.00,,,0.00,,2013-04-05 10:53:00,
2013-04-05 07:03:00,29.0,25.0,30.02,NNE,24,0.0,0.0,86,0.00,,,0.00,,2013-04-05 11:03:00,
2013-04-05 07:13:00,29.0,25.0,30.02,NNE,24,0.0,0.0,86,0.00,,,0.00,,2013-04-05 11:13:00,
2013-04-05 07:22:00,29.0,25.0,30.02,NNE,24,0.0,0.0,86,0.00,,,0.00,,2013-04-05 11:22:00,
2013-04-05 07:33:00,28.0,25.0,30.03,NNE,24,0.0,0.0,87,0.00,,,0.00,,2013-04-05 11:33:00,
2013-04-05 07:42:00,28.0,25.0,30.03,NNE,24,0.0,0.0,87,0.00,,,0.00,,2013-04-05 11:42:00,
2013-04-05 07:52:00,28.0,24.0,30.03,NNE,24,0.0,0.0,86,0.00,,,0.00,,2013-04-05 11:52:00,
2013-04-05 08:02:00,28.0,24.0,30.04,NE,41,0.0,0.0,84,0.00,,,0.00,,2013-04-05 12:02:00,
2013-04-05 08:12:00,28.0,24.0,30.04,NE,41,0.0,0.0,84,0.00,,,0.00,,2013-04-05 12:12:00,
2013-04-05 08:22:00,29.0,25.0,30.05,NE,41,0.0,0.0,83,0.00,,,0.00,,2013-04-05 12:22:00,
2013-04-05 08:32:00,30.0,24.0,30.06,NW,314,0.0,2.0,79,0.00,,,0.00,,2013-04-05 12:32:00,
2013-04-05 08:42:00,30.0,24.0,30.06,NW,314,0.0,2.0,79,0.00,,,0.00,,2013-04-05 12:42:00,
2013-04-05 08:52:00,32.0,25.0,30.06,NNW,331,2.0,4.0,75,0.00,,,0.00,,2013-04-05 12:52:00,
2013-04-05 09:02:00,33.0,24.0,30.07,WNW,284,0.0,6.0,70,0.00,,,0.00,,2013-04-05 13:02:00,
2013-04-05 09:12:00,33.0,24.0,30.07,WNW,284,0.0,6.0,70,0.00,,,0.00,,2013-04-05 13:12:00,
2013-04-05 09:23:00,34.0,25.0,30.07,NE,54,1.0,5.0,68,0.00,,,0.00,,2013-04-05 13:23:00,
2013-04-05 09:32:00,35.0,25.0,30.07,West,266,0.0,7.0,66,0.00,,,0.00,,2013-04-05 13:32:00,
2013-04-05 09:42:00,35.0,25.0,30.07,West,266,0.0,7.0,66,0.00,,,0.00,,2013-04-05 13:42:00,
2013-04-05 09:52:00,36.0,25.0,30.07,North,355,1.0,4.0,63,0.00,,,0.00,,2013-04-05 13:52:00,
2013-04-05 10:03:00,37.0,25.0,30.08,NNE,17,0.0,10.0,61,0.00,,,0.00,,2013-04-05 14:03:00,
2013-04-05 10:12:00,37.0,25.0,30.08,NNE,17,0.0,10.0,61,0.00,,,0.00,,2013-04-05 14:12:00,
2013-04-05 10:23:00,38.0,26.0,30.08,North,355,4.0,4.0,61,0.00,,,0.00,,2013-04-05 14:23:00,
2013-04-05 10:37:00,39.0,24.0,30.08,NE,45,5.0,7.0,55,0.00,,,0.00,,2013-04-05 14:37:00,
2013-04-05 10:43:00,39.0,24.0,30.08,NE,45,5.0,7.0,55,0.00,,,0.00,,2013-04-05 14:43:00,
2013-04-05 10:54:00,39.0,22.0,30.08,North,9,2.0,10.0,51,0.00,,,0.00,,2013-04-05 14:54:00,
2013-04-05 11:02:00,39.0,23.0,30.09,NNE,30,0.0,6.0,52,0.00,,,0.00,,2013-04-05 15:02:00,
2013-04-05 11:13:00,39.0,23.0,30.09,NNE,30,0.0,6.0,52,0.00,,,0.00,,2013-04-05 15:13:00,
2013-04-05 11:23:00,40.0,23.0,30.09,North,355,0.0,7.0,51,0.00,,,0.00,,2013-04-05 15:23:00,
2013-04-05 11:33:00,41.0,23.0,30.10,NNW,344,4.0,6.0,48,0.00,,,0.00,,2013-04-05 15:33:00,
2013-04-05 11:43:00,41.0,23.0,30.10,NNW,344,4.0,6.0,48,0.00,,,0.00,,2013-04-05 15:43:00,
2013-04-05 11:53:00,41.0,22.0,30.10,NW,304,0.0,6.0,47,0.00,,,0.00,,2013-04-05 15:53:00,
2013-04-05 12:03:00,41.0,23.0,30.10,NNE,17,0.0,5.0,48,0.00,,,0.00,,2013-04-05 16:03:00,
2013-04-05 12:23:00,42.0,23.0,30.10,NW,321,0.0,7.0,46,0.00,,,0.00,,2013-04-05 16:23:00,
2013-04-05 12:33:00,41.0,22.0,30.10,North,355,5.0,10.0,46,0.00,,,0.00,,2013-04-05 16:33:00,
2013-04-05 12:42:00,41.0,22.0,30.10,North,355,5.0,10.0,46,0.00,,,0.00,,2013-04-05 16:42:00,
2013-04-05 12:52:00,42.0,23.0,30.10,West,272,3.0,9.0,46,0.00,,,0.00,,2013-04-05 16:52:00,
2013-04-05 13:13:00,42.0,22.0,30.10,North,0,3.0,7.0,45,0.00,,,0.00,,2013-04-05 17:13:00,
2013-04-05 13:23:00,43.0,23.0,30.10,ENE,57,0.0,5.0,44,0.00,,,0.00,,2013-04-05 17:23:00,
2013-04-05 13:32:00,43.0,22.0,30.10,North,9,0.0,7.0,42,0.00,,,0.00,,2013-04-05 17:32:00,
2013-04-05 13:45:00,43.0,22.0,30.10,North,9,0.0,7.0,42,0.00,,,0.00,,2013-04-05 17:45:00,
2013-04-05 13:53:00,44.0,23.0,30.09,NNW,345,2.0,6.0,44,0.00,,,0.00,,2013-04-05 17:53:00,
2013-04-05 14:02:00,44.0,22.0,30.09,North,355,0.0,7.0,41,0.00,,,0.00,,2013-04-05 18:02:00,
2013-04-05 14:13:00,44.0,22.0,30.09,North,355,0.0,7.0,41,0.00,,,0.00,,2013-04-05 18:13:00,
2013-04-05 14:23:00,45.0,22.0,30.08,NNE,23,2.0,11.0,39,0.00,,,0.00,,2013-04-05 18:23:00,
2013-04-05 14:33:00,45.0,22.0,30.08,NNE,13,0.0,6.0,39,0.00,,,0.00,,2013-04-05 18:33:00,
2013-04-05 14:43:00,45.0,22.0,30.08,NNE,13,0.0,6.0,39,0.00,,,0.00,,2013-04-05 18:43:00,
2013-04-05 14:53:00,45.0,23.0,30.08,NE,55,0.0,7.0,41,0.00,,,0.00,,2013-04-05 18:53:00,
2013-04-05 15:00:00,46.0,22.0,30.07,NNW,348,2.0,4.0,38,0.00,,,0.00,,2013-04-05 19:00:00,
2013-04-05 15:02:00,46.0,23.0,30.07,NW,317,0.0,6.0,40,0.00,,,0.00,,2013-04-05 19:02:00,
2013-04-05 15:13:00,46.0,23.0,30.07,NW,317,0.0,6.0,40,0.00,,,0.00,,2013-04-05 19:13:00,
2013-04-05 15:23:00,46.0,22.0,30.07,NNW,348,2.0,4.0,38,0.00,,,0.00,,2013-04-05 19:23:00,
2013-04-05 15:33:00,46.0,22.0,30.07,NNW,348,2.0,4.0,38,0.00,,,0.00,,2013-04-05 19:33:00,
2013-04-05 15:42:00,46.0,22.0,30.07,NNW,348,2.0,4.0,38,0.00,,,0.00,,2013-04-05 19:42:00,
2013-04-05 15:53:00,46.0,22.0,30.07,NNW,348,2.0,4.0,38,0.00,,,0.00,,2013-04-05 19:53:00,
2013-04-05 16:22:00,47.0,21.0,30.05,NNE,28,0.0,5.0,35,0.00,,,0.00,,2013-04-05 20:22:00,
2013-04-05 16:33:00,47.0,21.0,30.05,NNE,28,0.0,5.0,35,0.00,,,0.00,,2013-04-05 20:33:00,
2013-04-05 16:42:00,47.0,21.0,30.05,NNE,28,0.0,5.0,35,0.00,,,0.00,,2013-04-05 20:42:00,
2013-04-05 16:52:00,48.0,22.0,30.05,North,355,0.0,5.0,36,0.00,,,0.00,,2013-04-05 20:52:00,
2013-04-05 17:03:00,49.0,21.0,30.05,North,5,0.0,5.0,33,0.00,,,0.00,,2013-04-05 21:03:00,
2013-04-05 17:13:00,49.0,21.0,30.05,North,5,0.0,5.0,33,0.00,,,0.00,,2013-04-05 21:13:00,
2013-04-05 17:24:00,48.0,21.0,30.05,South,171,0.0,5.0,34,0.00,,,0.00,,2013-04-05 21:24:00,
2013-04-05 17:33:00,48.0,20.0,30.05,SSE,150,2.0,5.0,33,0.00,,,0.00,,2013-04-05 21:33:00,
2013-04-05 17:43:00,48.0,20.0,30.05,SSE,150,2.0,5.0,33,0.00,,,0.00,,2013-04-05 21:43:00,
2013-04-05 17:53:00,48.0,22.0,30.05,NNW,342,3.0,4.0,36,0.00,,,0.00,,2013-04-05 21:53:00,
2013-04-05 18:03:00,48.0,22.0,30.06,North,9,0.0,3.0,36,0.00,,,0.00,,2013-04-05 22:03:00,
2013-04-05 18:13:00,48.0,22.0,30.06,North,9,0.0,3.0,36,0.00,,,0.00,,2013-04-05 22:13:00,
2013-04-05 18:23:00,48.0,21.0,30.06,NE,36,0.0,7.0,34,0.00,,,0.00,,2013-04-05 22:23:00,
2013-04-05 18:33:00,48.0,22.0,30.06,NNW,338,0.0,4.0,35,0.00,,,0.00,,2013-04-05 22:33:00,
2013-04-05 18:43:00,48.0,22.0,30.06,NNW,338,0.0,4.0,35,0.00,,,0.00,,2013-04-05 22:43:00,
2013-04-05 18:53:00,47.0,21.0,30.07,NNE,21,0.0,5.0,35,0.00,,,0.00,,2013-04-05 22:53:00,
2013-04-05 19:03:00,46.0,21.0,30.08,WNW,290,0.0,1.0,36,0.00,,,0.00,,2013-04-05 23:03:00,
2013-04-05 19:12:00,46.0,21.0,30.08,WNW,290,0.0,1.0,36,0.00,,,0.00,,2013-04-05 23:12:00,
2013-04-05 19:23:00,45.0,21.0,30.09,North,9,0.0,4.0,38,0.00,,,0.00,,2013-04-05 23:23:00,
2013-04-05 19:33:00,44.0,25.0,30.09,NE,34,1.0,4.0,46,0.00,,,0.00,,2013-04-05 23:33:00,
2013-04-05 19:42:00,44.0,25.0,30.09,NE,34,1.0,4.0,46,0.00,,,0.00,,2013-04-05 23:42:00,
2013-04-05 19:53:00,43.0,27.0,30.10,East,80,0.0,3.0,53,0.00,,,0.00,,2013-04-05 23:53:00,
2013-04-05 20:02:00,41.0,27.0,30.10,NE,45,0.0,2.0,56,0.00,,,0.00,,2013-04-06 00:02:00,
2013-04-05 20:13:00,41.0,27.0,30.10,NE,45,0.0,2.0,56,0.00,,,0.00,,2013-04-06 00:13:00,
2013-04-05 20:23:00,41.0,27.0,30.10,NE,54,0.0,0.0,57,0.00,,,0.00,,2013-04-06 00:23:00,
2013-04-05 20:33:00,39.0,26.0,30.11,NE,45,0.0,0.0,59,0.00,,,0.00,,2013-04-06 00:33:00,
2013-04-05 20:42:00,39.0,26.0,30.11,NE,45,0.0,0.0,59,0.00,,,0.00,,2013-04-06 00:42:00,
2013-04-05 20:52:00,38.0,26.0,30.12,NE,56,0.0,2.0,61,0.00,,,0.00,,2013-04-06 00:52:00,
2013-04-05 21:02:00,37.0,26.0,30.12,NE,43,0.0,3.0,64,0.00,,,0.00,,2013-04-06 01:02:00,
2013-04-05 21:13:00,36.0,26.0,30.12,NE,41,0.0,2.0,67,0.00,,,0.00,,2013-04-06 01:13:00,
2013-04-05 21:23:00,36.0,26.0,30.12,NE,41,0.0,2.0,67,0.00,,,0.00,,2013-04-06 01:23:00,
2013-04-05 21:33:00,35.0,26.0,30.13,NE,42,0.0,0.0,69,0.00,,,0.00,,2013-04-06 01:33:00,
2013-04-05 21:43:00,35.0,26.0,30.13,NE,42,0.0,0.0,69,0.00,,,0.00,,2013-04-06 01:43:00,
2013-04-05 21:53:00,34.0,26.0,30.14,NE,42,0.0,0.0,72,0.00,,,0.00,,2013-04-06 01:53:00,
2013-04-05 22:02:00,34.0,26.0,30.15,NNE,32,0.0,0.0,73,0.00,,,0.00,,2013-04-06 02:02:00,
2013-04-05 22:12:00,34.0,26.0,30.15,NNE,32,0.0,0.0,73,0.00,,,0.00,,2013-04-06 02:12:00,
2013-04-05 22:23:00,33.0,26.0,30.15,NNE,33,0.0,1.0,75,0.00,,,0.00,,2013-04-06 02:23:00,
2013-04-05 22:32:00,33.0,26.0,30.16,NNE,32,0.0,1.0,76,0.00,,,0.00,,2013-04-06 02:32:00,
2013-04-05 22:42:00,33.0,26.0,30.16,NNE,32,0.0,1.0,76,0.00,,,0.00,,2013-04-06 02:42:00,
2013-04-05 22:53:00,33.0,26.0,30.16,NNE,30,0.0,1.0,76,0.00,,,0.00,,2013-04-06 02:53:00,
2013-04-05 23:03:00,33.0,26.0,30.16,NNE,30,0.0,0.0,76,0.00,,,0.00,,2013-04-06 03:03:00,
2013-04-05 23:13:00,33.0,26.0,30.16,NNE,30,0.0,0.0,76,0.00,,,0.00,,2013-04-06 03:13:00,
2013-04-05 23:22:00,33.0,27.0,30.15,NNE,31,0.0,0.0,77,0.00,,,0.00,,2013-04-06 03:22:00,
2013-04-05 23:34:00,32.0,26.0,30.15,NE,38,0.0,1.0,78,0.00,,,0.00,,2013-04-06 03:34:00,
2013-04-05 23:43:00,32.0,26.0,30.15,NE,38,0.0,1.0,78,0.00,,,0.00,,2013-04-06 03:43:00,
2013-04-05 23:54:00,32.0,26.0,30.15,NE,37,0.0,0.0,78,0.00,,,0.00,,2013-04-06 03:54:00,